• In Slovakia
  • List of Countries
  • For 7 days
  • Water Temperature
  • Satellite Maps
  • Weather Map
  • Weather Widgets
  • user-avatar
    Login

    Hourly Weather Sevan

    Today, 22 September, Saturday

    Time Temperature Precipitation Wind Pressure Humidity
    00:00 +15°C° 0.2 mm 2 mps 644 mmHg 75%
    01:00 +15°C° 0.4 mm 2 mps 644 mmHg 76%
    02:00 +15°C° 0.4 mm 2 mps 644 mmHg 78%
    03:00 +14°C° 0.4 mm 1 mps 644 mmHg 79%
    04:00 +14°C° 0.3 mm 1 mps 644 mmHg 80%
    05:00 +14°C° 0.3 mm 1 mps 644 mmHg 80%
    06:00 +14°C° 0.3 mm 1 mps 644 mmHg 81%
    07:00 +16°C° 0.2 mm 2 mps 644 mmHg 72%
    08:00 +17°C° 0.2 mm 2 mps 645 mmHg 63%
    09:00 +19°C° 0.2 mm 2 mps 645 mmHg 55%
    10:00 +20°C° 0.5 mm 2 mps 645 mmHg 50%
    11:00 +21°C° 0.5 mm 2 mps 645 mmHg 46%
    12:00 +23°C° 0.5 mm 2 mps 645 mmHg 42%
    13:00 +24°C° 0.7 mm 2 mps 645 mmHg 42%
    14:00 +24°C° 0.7 mm 2 mps 645 mmHg 41%
    15:00 +24°C° 0.7 mm 2 mps 645 mmHg 41%
    16:00 +21°C° 0.8 mm 2 mps 644 mmHg 48%
    17:00 +20°C° 0.8 mm 1 mps 644 mmHg 56%
    18:00 +19°C° 0.8 mm 1 mps 643 mmHg 63%
    19:00 +18°C° 0.7 mm 1 mps 643 mmHg 65%
    20:00 +18°C° 0.7 mm 1 mps 644 mmHg 66%
    21:00 +16°C° 0.7 mm 1 mps 644 mmHg 68%
    22:00 +16°C° 0.1 mm 1 mps 644 mmHg 70%
    23:00 +15°C° 0.1 mm 1 mps 643 mmHg 73%

    Tomorrow, 23 September, Sunday

    Time Temperature Precipitation Wind Pressure Humidity
    00:00 +15°C° 0.1 mm 1 mps 643 mmHg 75%
    01:00 +14°C° 0.1 mm 1 mps 643 mmHg 77%
    02:00 +14°C° 0.1 mm 1 mps 643 mmHg 78%
    03:00 +14°C° 0.1 mm 1 mps 643 mmHg 79%
    04:00 +14°C° 0 mm 1 mps 643 mmHg 80%
    05:00 +13°C° 0 mm 1 mps 643 mmHg 81%
    06:00 +13°C° 0 mm 1 mps 642 mmHg 82%
    07:00 +15°C° 0 mm 1 mps 643 mmHg 73%
    08:00 +18°C° 0 mm 1 mps 644 mmHg 64%
    09:00 +20°C° 0 mm 1 mps 644 mmHg 55%
    10:00 +21°C° 0.1 mm 1 mps 644 mmHg 50%
    11:00 +22°C° 0.1 mm 1 mps 644 mmHg 45%
    12:00 +23°C° 0.1 mm 2 mps 644 mmHg 40%
    13:00 +24°C° 0.2 mm 2 mps 644 mmHg 38%
    14:00 +24°C° 0.2 mm 2 mps 644 mmHg 37%
    15:00 +24°C° 0.2 mm 2 mps 643 mmHg 35%
    16:00 +21°C° 0.5 mm 2 mps 643 mmHg 41%
    17:00 +20°C° 0.5 mm 1 mps 642 mmHg 48%
    18:00 +18°C° 0.5 mm 1 mps 642 mmHg 54%
    19:00 +18°C° 0.6 mm 1 mps 642 mmHg 58%
    20:00 +16°C° 0.6 mm 2 mps 643 mmHg 61%
    21:00 +16°C° 0.6 mm 2 mps 643 mmHg 65%
    22:00 +15°C° 0.3 mm 2 mps 643 mmHg 68%
    23:00 +15°C° 0.3 mm 2 mps 643 mmHg 70%

    Day after tomorrow, 24 September, Monday

    Time Temperature Precipitation Wind Pressure Humidity
    00:00 +14°C° 0.3 mm 2 mps 643 mmHg 73%
    01:00 +14°C° 0 mm 2 mps 643 mmHg 75%
    02:00 +13°C° 0 mm 2 mps 643 mmHg 77%
    03:00 +13°C° 0 mm 1 mps 643 mmHg 80%
    04:00 +12°C° 0 mm 1 mps 643 mmHg 81%
    05:00 +12°C° 0 mm 1 mps 643 mmHg 81%
    06:00 +12°C° 0 mm 1 mps 642 mmHg 82%
    07:00 +14°C° 0 mm 1 mps 643 mmHg 72%
    08:00 +16°C° 0 mm 2 mps 644 mmHg 61%
    09:00 +18°C° 0 mm 2 mps 645 mmHg 50%
    10:00 +19°C° 0 mm 2 mps 645 mmHg 45%
    11:00 +21°C° 0 mm 2 mps 645 mmHg 40%
    12:00 +23°C° 0 mm 2 mps 645 mmHg 36%
    13:00 +23°C° 0 mm 2 mps 645 mmHg 35%
    14:00 +23°C° 0 mm 2 mps 644 mmHg 35%
    15:00 +23°C° 0 mm 2 mps 644 mmHg 34%
    16:00 +22°C° 0 mm 1 mps 644 mmHg 40%
    17:00 +20°C° 0 mm 1 mps 643 mmHg 45%
    18:00 +18°C° 0 mm 1 mps 643 mmHg 50%
    19:00 +16°C° 0 mm 1 mps 643 mmHg 54%
    20:00 +16°C° 0 mm 1 mps 643 mmHg 59%
    21:00 +15°C° 0 mm 1 mps 643 mmHg 63%
    22:00 +15°C° 0 mm 1 mps 643 mmHg 65%
    23:00 +14°C° 0 mm 1 mps 643 mmHg 68%

    25 September, Tuesday

    Time Temperature Precipitation Wind Pressure Humidity
    00:00 +14°C° 0 mm 1 mps 643 mmHg 70%
    01:00 +14°C° 0 mm 1 mps 643 mmHg 70%
    02:00 +13°C° 0 mm 1 mps 643 mmHg 70%
    03:00 +13°C° 0 mm 1 mps 642 mmHg 70%
    04:00 +13°C° 0 mm 1 mps 642 mmHg 69%
    05:00 +13°C° 0 mm 1 mps 642 mmHg 67%
    06:00 +12°C° 0 mm 1 mps 642 mmHg 66%
    07:00 +15°C° 0 mm 1 mps 643 mmHg 57%
    08:00 +18°C° 0 mm 1 mps 643 mmHg 48%
    09:00 +20°C° 0 mm 2 mps 644 mmHg 38%
    10:00 +21°C° 0 mm 2 mps 644 mmHg 35%
    11:00 +23°C° 0 mm 2 mps 644 mmHg 32%
    12:00 +25°C° 0 mm 2 mps 644 mmHg 28%
    13:00 +25°C° 0 mm 2 mps 643 mmHg 28%
    14:00 +25°C° 0 mm 2 mps 643 mmHg 27%
    15:00 +26°C° 0 mm 2 mps 643 mmHg 26%
    16:00 +24°C° 0 mm 1 mps 642 mmHg 31%
    17:00 +21°C° 0 mm 1 mps 642 mmHg 35%
    18:00 +19°C° 0 mm 1 mps 641 mmHg 40%
    19:00 +19°C° 0 mm 1 mps 642 mmHg 45%
    20:00 +18°C° 0 mm 1 mps 642 mmHg 50%
    21:00 +17°C° 0 mm 2 mps 642 mmHg 54%
    22:00 +16°C° 0 mm 2 mps 642 mmHg 58%
    23:00 +16°C° 0 mm 2 mps 642 mmHg 62%

    26 September, Wednesday

    Time Temperature Precipitation Wind Pressure Humidity
    00:00 +15°C° 0 mm 2 mps 642 mmHg 66%
    01:00 +15°C° 0 mm 2 mps 642 mmHg 68%
    02:00 +14°C° 0 mm 2 mps 641 mmHg 70%
    03:00 +14°C° 0 mm 2 mps 641 mmHg 72%
    04:00 +14°C° 0 mm 1 mps 641 mmHg 74%
    05:00 +13°C° 0 mm 1 mps 641 mmHg 75%
    06:00 +13°C° 0 mm 1 mps 641 mmHg 77%
    07:00 +15°C° 0 mm 1 mps 642 mmHg 66%
    08:00 +17°C° 0 mm 2 mps 642 mmHg 56%
    09:00 +20°C° 0 mm 2 mps 643 mmHg 45%
    10:00 +21°C° 0 mm 2 mps 643 mmHg 42%
    11:00 +23°C° 0 mm 2 mps 643 mmHg 38%
    12:00 +24°C° 0 mm 2 mps 643 mmHg 34%
    13:00 +24°C° 0.1 mm 2 mps 643 mmHg 34%
    14:00 +24°C° 0.1 mm 2 mps 642 mmHg 34%
    15:00 +24°C° 0.1 mm 2 mps 642 mmHg 34%
    16:00 +21°C° 0.2 mm 2 mps 642 mmHg 42%
    17:00 +19°C° 0.2 mm 2 mps 641 mmHg 50%
    18:00 +17°C° 0.2 mm 2 mps 641 mmHg 57%
    19:00 +17°C° 0.1 mm 3 mps 641 mmHg 62%
    20:00 +16°C° 0.1 mm 3 mps 641 mmHg 67%
    21:00 +14°C° 0.1 mm 3 mps 641 mmHg 71%
    22:00 +14°C° 0 mm 3 mps 641 mmHg 72%
    23:00 +13°C° 0 mm 3 mps 641 mmHg 73%

    27 September, Thursday

    Time Temperature Precipitation Wind Pressure Humidity
    00:00 +13°C° 0 mm 3 mps 641 mmHg 75%
    01:00 +13°C° 0 mm 3 mps 641 mmHg 76%
    02:00 +13°C° 0 mm 3 mps 641 mmHg 78%
    03:00 +14°C° 0 mm 2 mps 642 mmHg 80%
    04:00 +14°C° 0 mm 2 mps 642 mmHg 81%
    05:00 +14°C° 0 mm 2 mps 642 mmHg 81%
    06:00 +14°C° 0 mm 2 mps 642 mmHg 82%
    07:00 +15°C° 0 mm 2 mps 643 mmHg 74%
    08:00 +17°C° 0 mm 2 mps 643 mmHg 66%
    09:00 +19°C° 0 mm 3 mps 644 mmHg 58%
    10:00 +20°C° 0 mm 3 mps 644 mmHg 54%
    11:00 +21°C° 0 mm 3 mps 644 mmHg 50%
    12:00 +22°C° 0 mm 3 mps 644 mmHg 46%
    13:00 +22°C° 0.1 mm 3 mps 644 mmHg 45%
    14:00 +22°C° 0.1 mm 3 mps 644 mmHg 45%
    15:00 +24°C° 0.1 mm 3 mps 644 mmHg 45%
    16:00 +21°C° 0 mm 3 mps 643 mmHg 51%
    17:00 +20°C° 0 mm 3 mps 643 mmHg 57%
    18:00 +18°C° 0 mm 3 mps 643 mmHg 63%
    19:00 +18°C° 0 mm 3 mps 643 mmHg 67%
    20:00 +17°C° 0 mm 3 mps 643 mmHg 70%
    21:00 +16°C° 0 mm 3 mps 644 mmHg 74%
    22:00 +16°C° 0 mm 3 mps 644 mmHg 75%
    23:00 +16°C° 0 mm 3 mps 644 mmHg 76%
    Show more